Temp
18 18 18 19 19 19 19 19 19 19 19 20 19 17 17 18 18 18 17 17 17 17 17 17 18 19 19 19 19 18 18 18 17 16 16 16 16 15 15 15 16 16 15
18 18 18 19 19 19 19 20 20 19 19 19 19 18 19 19 19 19 17 17 17 17 17 17 18 19 20 19 19 18 18 18 18 17 16 16 15 15 15 15 15 15 15
18 18 18 19 19 20 20 20 20 20 20 20 19 19 19 19 18 18 17 17 17 17 17 17 19 19 19 19 18 18 18 18 17 17 16 15 15 15 15 15 15 14 15
18 17 18 19 19 19 19 19 19 20 20 20 20 19 19 19 18 18 17 17 17 17 17 18 19 19 19 19 18 18 18 17 17 17 16 16 15 15 15 15 14 14 14
17 17 18 18 18 18 19 19 20 20 20 20 19 19 18 18 18 18 18 17 17 17 17 19 19 19 19 19 18 18 18 17 17 17 16 16 15 15 15 14 15 14 14
17 17 17 18 18 18 19 20 19 20 19 18 18 18 17 17 18 19 19 18 17 17 17 19 19 19 19 19 18 18 18 17 17 16 16 15 15 15 14 14 14 14 14
17 17 17 18 18 18 19 19 19 19 18 17 17 17 16 18 18 19 19 19 19 18 18 18 18 18 19 18 18 18 17 17 17 17 16 15 15 14 14 14 14 13 13
17 17 17 18 17 18 17 19 18 18 17 18 17 17 18 18 18 19 19 19 19 19 18 18 18 18 18 18 18 18 17 17 17 17 16 15 14 14 14 13 13 13 13
16 16 16 15 15 16 18 18 18 18 18 17 17 18 18 18 19 18 19 19 18 18 18 18 18 18 18 18 17 17 17 17 17 16 15 15 14 14 13 13 13 13 12
14 14 14 13 13 16 17 17 18 18 18 18 18 18 18 18 18 18 18 18 18 18 18 18 18 17 17 17 17 17 17 16 16 16 15 14 14 13 13 13 14 13 13
13 13 12 12 14 15 16 16 18 17 17 18 18 18 18 18 18 18 18 17 18 18 18 18 17 17 17 17 16 16 16 16 15 15 14 14 13 13 12 13 13 13 12
12 13 13 13 15 15 15 17 18 19 18 18 18 18 18 18 18 18 17 18 18 18 17 17 17 17 17 16 16 15 15 15 15 14 14 13 13 13 12 12 12 11 11
13 13 13 14 14 15 16 17 17 17 17 17 17 17 17 17 17 18 17 17 17 17 17 17 17 16 16 15 15 15 14 14 14 14 14 13 13 13 12 11 11 11 10
12 13 13 14 15 15 16 17 17 17 17 17 17 17 17 17 17 17 17 17 17 16 16 16 16 16 15 15 15 14 14 14 14 13 13 13 13 13 12 11 11 10 10
13 14 14 14 15 15 16 16 16 17 17 17 17 17 17 18 17 16 16 16 16 16 16 16 15 15 14 14 13 13 13 13 13 13 13 13 13 12 12 11 11 10 10
14 13 14 15 15 15 16 16 17 17 17 17 17 17 17 17 17 16 16 16 16 16 15 15 14 14 13 13 13 12 12 11 11 12 12 12 12 12 11 11 10 10 10
15 15 15 15 15 15 16 16 17 16 17 17 17 16 16 16 16 16 16 15 15 15 15 14 14 13 13 12 12 11 11 10 10 11 11 11 11 10 10 10 10 9 9
15 15 16 16 15 16 16 16 16 16 16 16 16 16 16 16 16 16 15 15 14 14 14 14 13 13 12 12 11 10 10 10 10 10 10 11 10 9 9 9 8 8 8
16 16 16 15 16 16 16 16 16 16 16 16 16 16 15 15 15 15 15 14 14 14 13 13 12 12 11 10 10 9 9 9 9 9 9 9 9 8 9 8 8 8 7
16 16 16 16 16 16 16 16 15 15 16 16 16 16 15 15 14 15 14 13 13 13 12 12 11 10 10 9 9 9 8 8 8 8 8 8 9 8 8 8 8 7 7
16 16 16 16 17 16 16 15 14 15 15 15 15 15 14 14 14 14 14 13 12 12 11 10 10 9 9 9 9 8 7 7 7 7 7 7 8 7 7 7 7 6 6
17 17 16 17 17 16 16 16 16 15 15 15 15 14 14 14 13 13 13 12 11 11 10 9 9 9 8 8 8 6 3 6 6 6 6 6 6 6 6 6 6 5 5
16 16 16 17 17 16 15 15 15 14 14 14 13 14 13 13 13 12 12 11 11 10 10 9 9 9 8 7 7 7 4 3 3 5 6 6 6 5 5 5 5 4 4
15 15 16 17 17 15 15 15 15 15 13 13 13 13 12 12 12 11 11 11 10 10 9 9 9 8 8 7 6 6 6 5 3 2 5 5 5 5 5 5 5 4 3
16 16 15 15 15 15 15 15 15 14 13 13 12 12 12 11 11 11 10 10 10 9 9 9 8 7 7 6 6 6 5 5 4 2 1 3 5 5 5 4 4 4 3
16 16 15 16 15 15 15 15 14 13 12 12 11 11 11 11 10 10 10 10 9 9 8 8 7 6 6 6 5 5 4 4 4 2 -0 1 1 4 4 4 3 3 2
Height
793 798 801 803 805 807 810 811 814 818 819 820 824 827 829 830 832 833 836 835 837 838 840 841 842 843 843 845 846 848 848 849 851 850 850 850 850 849 847 847 846 845 845
787 795 800 803 804 807 809 811 813 817 821 822 825 830 833 832 836 835 838 840 840 842 842 843 843 843 846 847 849 851 852 852 852 852 852 853 852 852 851 849 847 849 849
792 795 800 804 805 807 810 812 814 815 821 825 829 833 834 836 839 839 840 844 845 844 846 844 845 847 849 849 852 852 853 854 855 854 855 856 855 854 854 851 851 850 851
794 798 800 805 806 808 811 814 816 818 821 826 830 834 836 838 841 843 844 847 847 849 849 847 849 850 852 852 853 854 855 856 856 856 857 857 858 857 855 853 852 853 853
797 800 803 805 807 809 812 815 819 819 823 828 832 835 839 841 842 845 847 850 851 850 852 851 851 853 853 853 855 856 857 858 858 858 859 859 859 859 857 856 855 854 853
799 802 804 808 810 812 813 814 822 820 825 831 833 838 842 843 845 846 847 850 854 853 856 853 855 856 855 856 856 858 860 860 860 861 861 861 860 860 858 858 857 856 855
800 803 806 809 810 813 818 818 824 823 828 832 836 840 844 845 848 851 850 853 855 858 857 857 858 858 858 859 859 860 862 863 863 862 862 862 863 862 860 860 860 858 856
799 803 808 810 814 815 824 822 826 828 833 834 839 842 846 848 851 852 854 855 858 858 860 859 859 860 861 860 861 863 864 865 864 866 865 864 864 864 864 862 861 860 859
801 805 807 810 813 824 824 829 829 833 834 837 841 845 847 850 852 854 856 856 859 860 860 860 860 860 861 862 864 864 865 866 866 866 865 865 864 865 866 864 863 863 862
801 805 805 805 811 825 827 833 834 834 834 838 844 847 849 852 854 855 858 859 861 861 862 863 864 863 863 863 864 865 866 867 867 868 867 867 867 865 866 865 864 865 863
806 807 809 814 823 829 832 837 837 836 837 841 846 850 850 853 855 856 859 860 862 863 863 865 866 865 865 864 865 866 867 867 868 868 870 869 869 866 866 866 866 866 864
810 813 817 821 828 830 835 836 835 837 841 844 849 851 852 853 855 858 860 861 862 864 865 865 866 867 866 866 865 867 868 868 869 869 870 869 869 868 866 868 867 866 866
811 814 818 825 829 831 836 839 840 841 845 847 850 852 853 854 857 858 860 862 863 864 866 865 867 868 867 867 866 867 867 867 869 870 869 869 869 871 868 867 868 867 866
817 818 821 826 832 835 836 839 840 843 844 847 852 853 854 855 857 859 861 862 864 866 867 868 868 868 868 869 867 869 868 867 866 869 870 869 869 869 868 868 868 868 867
817 820 824 828 831 834 837 840 843 845 846 849 852 854 853 856 858 860 861 863 864 867 868 869 870 868 870 870 867 869 868 867 866 867 869 868 869 868 868 868 869 868 869
820 823 825 828 832 835 837 841 842 846 847 849 853 855 854 857 858 859 862 864 865 867 870 870 870 868 870 869 868 868 868 867 866 866 867 867 868 866 867 867 868 868 869
820 825 827 830 832 835 839 842 843 846 847 850 852 854 855 858 859 860 862 865 866 868 869 869 868 868 869 869 869 868 869 867 865 866 866 867 866 865 865 866 867 868 869
820 821 824 827 831 834 838 841 843 845 848 850 851 854 855 856 858 860 862 865 867 868 867 868 869 869 869 869 869 868 868 866 865 865 866 865 864 864 865 866 867 868 868
816 819 822 827 829 834 837 842 843 845 848 848 850 852 853 854 858 860 863 865 867 867 867 869 871 869 869 870 869 868 867 866 866 867 865 864 865 865 865 866 866 866 866
816 820 822 826 829 833 835 839 843 844 845 847 849 850 853 855 858 861 863 866 867 866 866 870 869 869 869 868 868 868 868 867 867 867 866 866 866 866 867 867 866 865 865
814 815 818 822 824 828 830 835 840 839 842 846 848 850 853 855 858 862 862 864 865 866 868 870 870 869 868 867 867 868 868 867 867 867 867 867 867 867 867 867 866 865 864
806 810 813 817 820 825 827 831 834 839 842 844 847 849 852 855 858 860 860 862 864 866 868 868 866 864 866 867 866 866 868 868 867 866 865 865 866 866 866 865 864 864 863
801 803 807 811 816 820 825 829 832 836 839 842 844 847 851 854 856 858 859 862 864 866 867 866 862 860 862 866 867 867 869 871 867 865 865 865 865 864 864 864 863 862 862
797 801 804 806 810 814 820 824 826 828 833 837 841 846 850 852 853 856 859 861 862 862 863 862 861 861 860 865 867 866 867 867 868 867 865 864 863 863 862 862 861 861 860
790 794 802 810 812 815 815 819 824 827 830 836 842 845 847 849 852 855 857 859 859 858 859 857 858 861 863 864 866 865 865 866 866 867 866 863 862 862 861 861 860 859 858
787 792 801 806 808 811 814 816 820 824 830 835 839 842 844 846 849 854 856 856 855 853 854 855 857 859 862 863 864 864 864 864 863 864 864 862 860 859 858 858 857 857 855
Wind_Speed
29 31 31 32 33 34 34 33 31 29 29 28 28 28 28 29 29 29 29 30 29 27 25 24 23 19 19 19 21 23 22 22 22 21 21 20 20 20 20 19 21 20 19
37 34 33 33 33 33 33 32 31 29 28 29 29 28 28 30 29 32 32 30 29 27 26 24 23 20 18 21 21 22 21 23 24 23 22 20 20 20 20 20 20 19 19
34 33 32 33 33 33 32 31 30 30 29 29 29 28 29 30 31 33 33 30 28 28 26 28 27 28 27 25 23 21 20 22 23 23 23 22 21 20 20 21 21 19 18
29 30 31 31 32 33 32 30 30 30 31 30 29 28 29 32 33 32 32 30 29 28 27 30 29 26 25 23 21 20 20 20 21 22 22 22 21 19 19 20 21 20 20
26 29 30 31 32 32 31 29 28 31 31 30 28 29 29 30 32 32 31 30 28 27 27 27 26 24 23 20 19 20 19 18 18 19 20 19 19 17 18 18 19 19 20
25 29 29 29 30 30 30 29 28 31 30 29 28 28 26 27 30 31 30 29 27 26 23 25 23 22 23 21 21 19 17 17 16 17 17 17 16 15 16 16 16 16 17
23 28 29 29 31 29 27 28 27 30 28 27 27 27 25 29 29 27 27 26 25 24 24 22 20 21 21 22 20 17 15 14 13 14 14 14 13 13 14 14 13 14 15
15 24 27 29 25 27 25 27 27 26 26 26 26 26 27 28 27 25 23 22 20 19 19 20 18 18 18 17 17 15 13 12 12 11 12 13 13 13 12 13 14 14 14
12 16 20 28 28 23 24 23 26 25 25 24 25 26 26 26 24 22 20 18 17 16 16 17 17 15 15 14 13 13 12 11 11 10 11 10 10 11 11 13 15 14 13
27 24 29 31 32 21 22 21 23 23 25 24 25 25 25 24 22 20 17 16 14 14 13 12 13 13 13 13 11 10 9 9 9 9 10 9 9 10 10 11 13 13 12
37 34 37 41 21 17 18 17 19 20 23 24 24 24 24 22 19 17 14 13 11 11 10 9 10 11 11 11 10 8 7 8 7 8 7 6 7 8 9 9 10 10 10
31 37 34 30 18 17 15 13 13 17 20 23 23 22 20 18 17 15 13 11 10 9 10 11 11 11 10 10 10 10 9 8 6 4 3 4 5 4 6 7 8 9 11
34 37 37 23 21 25 15 15 17 19 21 20 20 19 17 17 15 14 12 11 12 12 12 11 10 10 11 11 11 11 10 9 8 6 1 1 2 2 3 6 7 9 10
27 41 39 39 29 18 15 14 15 19 22 21 18 16 16 15 14 13 11 13 12 11 11 10 10 11 10 8 9 8 8 8 8 6 4 1 2 0 1 3 6 8 9
32 38 37 29 23 18 14 16 17 18 19 18 16 14 14 13 14 13 14 13 11 9 9 10 10 9 7 7 9 9 9 8 7 6 5 5 3 3 1 2 4 6 8
26 27 30 22 16 18 14 17 19 17 17 18 16 14 13 14 15 14 13 12 11 10 9 8 7 7 7 8 8 10 9 6 6 6 7 6 3 2 2 4 5 5 4
26 26 28 20 16 18 15 18 19 16 16 17 17 17 15 13 13 13 12 12 11 11 9 7 6 6 6 8 8 8 6 6 6 6 6 4 1 2 5 7 6 5 4
24 26 23 20 18 19 18 19 18 19 17 17 17 16 15 14 13 13 13 13 13 10 7 5 4 4 6 6 4 4 5 6 7 6 4 3 3 5 8 9 8 6 4
29 25 24 23 21 22 20 21 22 21 19 16 15 14 13 13 15 15 15 14 11 8 6 4 3 4 5 3 3 3 4 5 7 8 10 10 7 7 6 5 4 1 2
28 26 26 24 23 24 22 22 24 21 18 15 14 13 14 17 18 16 14 13 9 6 4 2 3 5 5 4 3 3 2 6 7 7 7 6 6 4 2 1 2 3 2
27 28 28 28 26 26 24 26 26 23 18 17 15 15 16 17 16 15 13 10 7 4 4 2 3 5 6 5 3 3 3 5 5 5 6 4 3 2 2 4 5 3 4
32 32 31 31 31 32 31 30 27 25 22 19 18 16 15 17 16 14 11 8 7 5 4 3 4 6 4 4 2 3 3 2 0 3 4 3 1 1 2 3 1 3 3
35 38 38 38 36 35 36 34 25 24 20 20 20 19 19 18 15 11 10 8 7 4 2 4 6 6 5 4 3 3 2 2 4 5 5 3 3 3 3 4 4 4 4
29 33 37 41 37 35 36 35 32 30 24 21 25 23 21 17 15 12 10 8 5 4 5 8 9 8 6 3 1 0 2 3 2 3 4 7 8 7 8 10 10 6 6
33 35 34 30 31 34 35 36 33 29 26 23 26 24 21 18 15 13 11 6 4 6 7 9 8 7 4 2 2 3 5 7 8 4 3 6 10 10 15 13 11 9 9
26 31 28 25 34 35 36 34 35 31 25 26 27 26 23 20 18 14 10 7 5 9 5 6 4 2 0 2 5 5 5 4 4 7 5 9 8 12 14 14 12 10 13
Wind_Direction
165 160 154 149 144 140 136 133 131 130 127 124 123 123 122 118 118 114 109 106 104 101 98 92 90 90 91 92 94 94 87 75 74 73 67 66 63 61 62 60 60 56 50
161 161 157 153 147 142 139 136 133 131 128 127 128 127 124 121 118 114 109 105 104 101 96 88 89 89 96 97 98 99 88 79 76 74 75 70 65 62 60 60 63 56 52
157 160 159 155 149 145 143 139 137 134 133 131 130 129 126 122 119 114 110 106 101 98 94 92 91 92 98 98 99 98 89 80 76 74 73 71 67 64 61 61 58 59 57
159 162 161 158 152 147 144 141 138 136 135 135 134 131 127 124 121 115 110 105 102 99 95 94 95 98 99 97 98 96 92 85 79 74 70 69 68 64 64 63 61 58 57
158 166 163 160 154 149 144 141 142 138 138 136 135 132 130 127 122 118 111 107 104 103 101 102 97 96 100 102 103 103 97 89 80 77 73 66 65 60 59 57 57 59 58
164 170 167 164 156 151 148 144 147 139 138 139 133 133 132 127 125 121 116 111 108 105 105 100 100 96 93 96 104 104 94 86 80 76 74 70 63 60 59 55 54 54 55
173 177 171 166 158 150 148 142 145 139 138 134 133 134 134 133 129 123 115 111 109 108 102 99 97 95 90 91 97 95 87 76 74 73 73 74 68 60 60 57 57 61 60
162 174 174 164 157 148 152 141 142 136 139 133 137 138 138 136 130 120 115 111 110 108 104 99 101 95 87 85 86 84 81 69 74 73 71 69 68 62 59 57 52 56 58
152 152 158 159 147 145 142 144 140 142 134 137 138 141 138 133 129 122 117 117 113 113 111 101 96 105 95 89 77 69 65 58 56 66 65 65 62 67 68 65 59 56 58
111 112 100 100 119 136 136 145 144 140 138 138 139 137 135 132 131 126 123 119 119 111 103 100 98 102 101 94 84 79 71 59 53 55 66 85 79 79 77 62 44 45 54
97 97 107 112 121 130 133 146 143 137 135 136 139 142 138 138 134 129 129 126 118 107 104 110 109 104 102 93 88 81 82 72 67 59 73 75 65 87 83 64 55 53 56
108 112 111 126 130 128 128 130 133 141 143 144 147 146 146 142 137 138 133 133 130 126 122 116 104 106 93 91 91 81 68 60 51 47 76 89 42 86 92 74 67 75 73
132 132 133 137 150 135 162 170 163 156 156 155 156 151 147 145 145 143 143 136 136 129 125 120 115 96 90 90 82 73 68 57 42 31 39 146 100 40 110 97 86 83 79
141 134 143 153 166 183 191 179 168 165 162 161 163 159 159 157 156 160 155 141 138 126 123 111 103 96 88 78 64 48 35 24 25 34 24 343 214 48 198 133 93 86 80
159 157 171 180 189 190 188 183 176 173 169 169 169 180 173 178 173 161 150 145 139 131 125 114 108 98 81 60 45 27 18 9 1 2 20 21 329 273 304 188 110 90 79
173 182 185 184 190 194 192 188 173 180 180 180 187 188 170 169 165 156 149 147 142 141 130 124 108 85 66 42 29 22 19 20 26 10 6 360 308 200 159 141 119 110 93
178 183 187 195 199 195 195 185 176 180 173 176 180 176 175 175 170 168 162 156 148 144 139 124 94 73 41 19 15 27 30 57 56 31 21 21 17 172 150 125 117 116 105
188 196 205 205 208 200 196 190 187 183 178 179 179 187 187 178 177 173 167 159 153 149 136 114 80 39 11 9 24 49 68 73 74 77 60 48 124 140 132 125 104 90 54
199 203 210 212 208 203 197 196 189 187 186 186 189 188 187 183 177 173 164 154 153 145 119 82 57 43 46 60 95 87 73 83 99 96 82 87 111 132 131 131 124 125 55
207 213 214 207 205 201 198 194 189 191 191 194 197 194 184 172 169 167 158 156 152 140 109 80 78 87 85 96 140 53 92 114 97 89 80 76 77 84 102 171 303 316 305
211 211 213 206 202 202 196 187 190 187 184 184 181 178 176 172 168 169 163 156 140 116 100 116 122 109 86 71 130 7 122 114 78 100 101 91 84 53 359 342 324 291 285
213 214 212 209 203 203 203 197 193 189 186 184 179 175 174 173 170 171 165 155 138 120 122 127 104 88 87 53 70 69 20 288 287 139 154 148 143 285 344 347 263 298 320
209 211 212 210 210 210 203 196 193 188 184 181 178 175 174 176 176 178 166 147 128 110 79 63 52 57 82 53 70 84 35 269 326 266 240 238 254 292 345 321 309 304 294
208 211 209 209 208 206 204 201 199 193 180 192 183 180 175 176 174 169 156 146 125 80 43 34 38 38 68 86 101 141 227 251 204 318 269 279 274 272 290 298 291 288 299
209 213 210 210 210 210 206 208 206 199 192 186 183 177 173 168 166 167 163 143 107 66 32 22 25 32 63 97 230 238 253 266 263 233 280 287 280 269 291 287 275 290 304
209 210 202 207 229 216 210 213 212 205 189 180 177 176 174 172 170 165 158 136 61 354 10 21 13 100 271 290 270 265 251 239 238 234 238 264 258 278 279 269 269 285 302